Погода в Гуасаве

Мексика     25°34′13″N   108°27′39″W
темп.,
°C
ветер,
м/с
пор.,
м/с
влажн.,
%
обл.,
%
осадки,
мм/ч
давл.,
гПа
погр.,
м
17 мая, вт
вт1700:00+23ююв377698 0.0 1012236
03:00+22юв49766 0.0 1011242
06:00+21юв498499 0.0 1013238
09:00+27юв685761 0.0 1014659
12:00+33ю882999 0.0 10131176
15:00+32ю773017 0.0 10131017
18:00+29ю674477 0.0 1012702
21:00+24юв47730 0.0 1013272
18 мая, ср
ср1800:00+22ююв36810 0.0 1014150
03:00+21юв35840 0.0 1013103
06:00+20юв2387100 0.0 101344
09:00+25юв3455100 0.0 1015475
12:00+32ю5527100 0.0 10141105
15:00+32ююз6525100 0.0 10121012
18:00+29ююз5537100 0.0 1011638
21:00+23ююв3469100 0.0 1013103
19 мая, чт
чт1900:00+22юв347642 0.0 101492
03:00+20юв228142 0.0 101232
06:00+20юв2284100 0.0 101222
09:00+25юв3351100 0.0 1013448
12:00+32ююз4322100 0.0 10121151
15:00+33ююз65229 0.0 10101134
18:00+30юз55306 0.0 1009702
21:00+24ю33590 0.0 101055
20 мая, пт
пт2000:00+22ююв22720 0.0 101133
03:00+21ююв22750 0.0 100919
06:00+21юв23760 0.0 101030
09:00+26ююв34490 0.0 1012654
12:00+31ююз662260 0.0 10111140
15:00+32юз662051 0.0 10101050
18:00+30юз56245 0.0 1010760
21:00+23юз22445 0.0 101111
21 мая, сб
сб2100:00+22ю115065 0.0 101111
03:00+21ююз115881 0.0 101111
06:00+20ссз01692 0.0 101111
09:00+26вюв00460 0.0 1013417
12:00+33юз53200 0.0 10121251
15:00+33юз65150 0.0 1011954
18:00+31зюз55170 0.0 1011695
21:00+24зюз23370 0.0 101222